Location: Canazei
(46.4667°N, 11.7667°E)
Time: 06:13:05
(UTC+00:00)

Meteor 1-29 - Pass Details

Date: 21 April 2021
Orbit: 436 x 457 km, 97.7° (Epoch: 14 May)

Event Time Altitude Azimuth Distance (km) Brightness Sun altitude
Rises 01:51:01 0° 4° (N) 2,430 7.4 -21.6°
Reaches altitude 10° 01:53:09 10° 354° (N) 1,556 6.2 -21.4°
Enters shadow 01:55:22 28° 319° (NW) 854 4.3 -21.1°
